Temp_Advection
nan nan nan nan nan nan nan nan nan nan nan nan nan nan nan nan nan nan nan nan nan nan nan nan nan nan nan nan nan nan nan nan nan nan nan nan nan nan nan nan nan nan nan
nan -1 -1 -1 -1 -0 -0 -0 -0 0 0 0 0 -0 -0 0 0 0 0 -0 0 0 0 -0 -0 1 1 1 0 0 0 0 0 0 0 0 0 -0 0 1 0 0 nan
nan 0 -1 -1 -1 -1 -0 -0 -0 -0 -0 -0 0 -0 -0 -0 0 0 -0 0 0 0 0 -0 0 1 1 0 0 1 0 1 1 1 0 -0 0 0 1 0 0 0 nan
nan 0 -0 -1 -1 -1 -0 -0 -0 0 -0 -0 0 -0 0 0 0 -0 0 0 0 0 0 0 0 0 1 1 0 0 1 1 1 1 0 -0 0 0 0 0 0 0 nan
nan -0 -0 -1 -1 -1 -0 0 0 -0 -0 0 0 -0 0 0 0 0 0 0 0 0 0 0 0 1 1 1 0 1 1 1 1 0 0 0 0 -0 -0 0 0 0 nan
nan -0 -0 -1 -1 -1 -0 -0 -0 0 0 0 0 0 0 0 0 0 0 0 0 0 0 0 1 1 1 1 1 1 0 0 0 0 0 -0 -0 0 0 0 0 0 nan
nan -0 -0 -0 -1 -1 -1 -0 0 0 0 0 0 0 0 0 0 0 0 0 0 1 1 1 1 1 1 1 1 0 0 0 -0 0 -0 -0 0 0 0 0 0 0 nan
nan 0 -0 -0 -0 -0 -0 -0 -0 -0 0 0 0 0 0 0 0 0 0 0 1 1 1 1 1 1 1 1 0 0 0 -0 0 0 0 0 0 0 0 0 0 0 nan
nan -0 -0 -0 -0 -0 -0 -0 -0 -0 0 0 0 0 0 0 0 0 1 1 1 1 1 1 1 1 0 1 -0 -0 0 0 0 0 0 0 0 0 0 0 0 0 nan
nan -0 -0 -0 -0 -0 -0 -0 0 0 0 0 0 0 0 0 0 1 0 0 1 1 1 1 1 1 0 0 1 0 0 0 -0 0 0 0 0 0 0 0 -0 -0 nan
nan -1 -0 -0 -0 -0 -0 -0 0 0 0 0 0 0 0 1 0 1 1 0 0 -0 0 0 1 1 0 0 0 0 0 0 0 0 0 0 0 0 -0 -0 -0 -0 nan
nan -1 -0 -0 -0 -0 0 0 0 0 0 0 0 0 0 1 1 1 1 1 1 -0 -1 -1 -0 0 0 -0 0 0 0 0 0 0 0 0 0 -0 -0 -0 -0 -0 nan
nan -1 -0 -0 0 0 -0 0 0 0 0 0 0 -0 0 0 1 1 1 1 0 1 0 -0 -1 -0 -0 -0 0 0 0 0 0 0 0 0 -0 -0 -0 -0 -0 -0 nan
nan -1 -0 -0 -0 0 -0 -0 -0 0 0 -0 -0 -0 -0 0 0 0 0 0 0 -0 -0 -0 -0 -0 0 0 0 0 0 0 0 0 0 0 0 -0 -0 -0 -0 -0 nan
nan -0 -0 -0 0 0 0 0 0 0 0 0 0 -0 -0 -0 0 0 0 -0 0 -0 -0 -0 -0 0 0 0 0 0 0 0 0 0 0 0 -0 -0 -0 -0 -0 -0 nan
nan -0 -0 0 0 0 0 0 0 0 0 0 0 0 -0 -0 0 0 0 -0 0 0 0 0 -0 0 0 0 0 0 0 0 0 0 0 0 0 -0 -0 -0 -0 -0 nan
nan -1 0 0 0 0 0 0 0 0 0 0 0 0 0 0 0 0 0 0 0 0 0 0 -0 -0 -0 0 0 0 0 0 0 0 0 0 -0 -0 -0 -0 -0 -0 nan
nan -0 0 0 0 0 0 0 0 0 0 0 0 0 0 0 -0 0 -0 -0 -0 0 0 0 0 -0 -0 0 0 0 0 0 0 0 0 0 0 -0 -0 -0 -0 -0 nan
nan -0 0 0 0 0 0 0 0 0 0 -0 0 0 1 0 0 0 0 0 -0 -0 -0 0 0 0 0 0 0 0 0 0 0 0 0 -0 -0 0 0 -0 -0 -0 nan
nan -0 0 0 0 0 0 0 0 0 1 0 0 0 0 -0 -0 0 1 0 0 0 -0 0 0 0 0 0 0 0 0 0 0 0 0 -0 -0 0 0 -0 -0 -0 nan
nan 0 0 0 0 0 0 0 0 0 0 0 1 1 0 -0 -1 -0 1 0 0 0 0 0 0 0 0 0 0 0 0 0 0 -0 -0 -0 0 0 0 -0 -0 -0 nan
nan 0 0 0 0 0 0 0 0 0 0 0 0 1 0 0 0 0 1 0 0 0 0 0 0 0 0 0 0 0 0 0 0 -0 -0 -0 0 0 0 -0 -0 -0 nan
nan 0 0 0 0 0 0 0 0 0 -0 0 -0 0 0 1 1 1 0 0 0 0 0 0 0 0 0 0 0 0 0 0 0 -0 -0 -0 0 0 0 0 -0 -0 nan
nan 0 0 0 0 0 0 0 0 -0 0 0 0 0 1 1 0 0 0 0 0 0 0 0 0 0 0 0 0 0 0 0 0 0 -0 -0 0 0 0 0 -0 -0 nan
nan 0 0 0 0 0 -0 -0 -0 -0 0 0 -0 0 0 0 1 0 -0 0 0 0 0 0 0 0 -0 0 0 0 0 0 0 0 0 0 0 0 0 -0 -0 -0 nan
nan nan nan nan nan nan nan nan nan nan nan nan nan nan nan nan nan nan nan nan nan nan nan nan nan nan nan nan nan nan nan nan nan nan nan nan nan nan nan nan nan nan nan
Wind_Speed
29 28 25 23 20 17 20 17 16 17 14 17 19 21 19 18 21 22 24 24 26 32 32 36 42 39 38 37 32 28 25 25 18 16 18 16 17 17 16 16 18 18 19
33 32 29 24 19 16 16 10 15 15 13 15 18 18 18 19 17 19 21 21 24 28 28 33 35 34 36 33 38 32 25 21 18 15 17 15 17 17 15 15 15 17 17
33 34 33 23 20 16 12 13 14 15 15 15 18 19 18 19 19 19 21 17 19 23 26 29 30 26 27 30 27 24 20 21 18 17 13 17 16 15 14 15 14 15 16
33 33 33 25 20 16 13 12 14 15 18 17 18 20 20 19 19 19 20 18 20 20 23 25 25 31 26 27 19 16 17 17 18 16 11 13 13 12 14 14 13 13 14
32 34 35 27 20 14 14 14 15 14 14 16 18 19 21 20 21 20 19 21 20 19 22 22 24 26 22 20 18 21 19 17 13 10 12 14 14 13 12 11 11 11 12
30 32 34 28 22 15 13 16 15 16 16 17 19 22 20 21 21 17 21 18 19 21 19 24 27 24 21 20 17 16 13 11 12 16 14 8 9 9 7 10 10 9 7
30 30 32 31 22 17 13 14 13 15 18 18 19 19 18 21 21 18 17 18 20 20 22 24 25 24 23 22 20 16 16 15 15 8 9 7 5 11 10 9 8 8 8
30 28 30 32 22 15 12 11 12 12 14 14 13 16 17 17 17 17 16 17 18 20 24 24 24 24 23 22 20 18 15 9 7 7 8 12 10 8 7 6 6 7 7
28 28 29 31 22 13 10 9 10 10 10 10 8 11 14 16 16 15 16 17 18 25 27 23 19 18 23 20 18 14 15 13 11 11 9 7 6 5 4 5 5 5 5
28 27 27 29 19 12 9 8 7 6 6 6 8 8 11 13 12 12 11 19 26 27 23 22 20 19 17 17 18 14 11 10 10 9 7 6 5 3 3 3 4 5 6
27 25 25 26 16 11 7 6 5 5 6 7 11 12 13 15 15 15 19 25 23 26 26 23 22 23 24 19 14 10 9 10 9 8 6 4 2 1 1 3 4 6 7
25 23 22 22 13 7 7 10 7 7 7 11 14 16 13 14 15 18 16 19 26 27 29 28 27 21 15 13 12 11 10 9 8 6 4 3 1 1 3 4 5 6 7
22 21 20 19 10 6 9 12 11 10 11 14 16 16 18 19 18 18 19 23 24 25 23 19 19 16 15 14 13 11 9 8 7 5 3 2 0 2 3 4 5 6 7
21 18 18 16 9 7 10 13 14 14 16 17 18 20 23 23 23 24 25 25 20 22 23 21 18 15 13 12 12 11 10 8 5 4 2 1 1 2 4 5 5 6 6
19 16 16 14 9 9 12 14 16 16 17 19 19 21 26 25 24 24 23 26 26 24 22 19 18 15 14 14 12 10 8 6 4 3 2 1 2 4 5 5 6 7 9
18 15 14 13 9 10 11 14 15 15 16 16 16 20 21 23 24 24 27 25 23 18 17 16 16 15 13 12 10 8 6 5 4 3 2 1 2 4 5 6 6 7 9
16 14 13 13 10 10 12 14 16 14 12 14 18 21 24 23 27 27 24 19 17 16 14 14 14 13 11 10 8 7 5 4 3 2 2 2 3 4 5 5 6 7 8
14 11 12 12 10 11 12 15 17 19 21 21 21 23 24 28 26 21 20 19 18 16 13 12 12 11 10 8 7 5 4 3 3 2 2 3 4 4 5 6 6 8 10
11 10 11 11 8 10 12 15 18 21 24 25 25 23 29 25 21 20 19 15 15 15 14 13 11 10 9 7 6 4 3 3 2 2 3 4 4 5 5 5 6 8 11
10 9 10 9 8 11 13 16 21 24 27 30 31 34 31 27 26 24 21 16 14 13 13 12 11 9 7 6 4 3 3 2 2 3 4 5 5 5 5 5 6 7 10
9 9 9 8 9 12 15 18 23 26 32 34 35 31 29 27 25 22 18 14 13 13 12 11 9 8 6 5 4 3 2 2 3 4 5 5 5 4 4 5 6 7 10
9 9 10 9 10 13 16 19 24 29 35 36 34 29 25 25 24 22 21 14 13 13 11 9 8 6 5 3 2 2 3 3 4 5 5 5 5 4 3 4 5 7 10
7 9 9 9 11 14 17 21 26 32 35 35 32 29 25 24 20 22 19 13 12 11 10 8 6 5 4 2 2 3 3 4 5 5 5 5 4 4 3 4 5 7 10
4 7 8 9 12 15 18 22 27 31 32 33 31 26 25 25 19 19 17 14 10 10 8 6 5 3 2 2 3 5 5 6 6 5 5 5 5 4 4 4 5 7 9
3 4 6 9 14 16 19 23 27 31 32 31 29 26 23 20 19 20 17 14 11 10 8 7 5 4 4 5 6 7 8 7 7 6 5 5 5 4 4 4 5 6 8
2 3 5 9 14 17 20 24 28 29 28 27 21 23 19 19 20 17 16 15 13 13 10 9 8 6 5 6 7 7 7 7 6 6 5 4 4 4 5 5 5 6 7
Wind_Direction
340 336 323 320 308 304 306 258 254 262 251 252 240 243 245 234 234 232 235 240 239 245 237 251 244 236 229 233 233 221 229 231 233 228 240 243 237 242 251 254 255 261 272
344 340 331 317 311 301 299 284 258 257 258 255 250 236 236 238 240 237 234 240 242 238 245 251 244 240 241 228 235 226 224 228 232 243 241 253 248 246 246 246 255 265 275
345 340 334 317 307 287 281 281 270 259 262 250 248 245 246 244 243 247 235 241 247 243 250 242 252 232 232 215 216 222 219 222 231 239 247 254 244 243 242 249 262 274 285
341 341 340 325 308 288 271 279 274 270 254 262 252 248 250 249 238 236 237 237 237 241 249 253 249 227 230 232 213 210 215 222 224 225 219 238 236 242 257 261 269 278 284
336 342 343 332 316 289 269 270 268 263 259 257 248 244 250 244 238 235 231 231 234 235 241 237 228 218 205 219 229 233 227 223 205 191 211 220 227 240 246 261 269 280 286
331 339 342 333 324 296 265 266 260 262 259 256 249 253 245 237 232 234 234 232 240 236 234 222 211 206 197 192 205 183 181 169 190 200 206 218 233 238 254 268 268 276 287
328 335 340 338 318 310 289 272 254 263 272 261 251 241 232 233 226 229 238 235 234 238 224 210 196 192 191 176 175 163 169 178 197 201 202 208 234 267 247 254 269 282 286
325 328 337 337 317 294 298 280 275 275 262 248 254 235 223 221 224 228 227 228 221 215 199 192 189 180 181 168 164 173 181 163 157 179 221 248 231 227 240 261 280 292 302
322 324 331 334 319 297 293 292 282 268 250 241 224 218 209 210 220 220 222 207 200 180 174 170 191 192 162 166 183 177 151 158 197 222 209 201 208 227 252 273 286 311 320
316 320 325 331 313 286 288 291 263 236 231 224 201 197 189 186 173 157 169 185 170 162 161 158 153 149 160 147 150 158 184 193 187 187 185 188 196 223 258 289 316 325 331
313 317 323 329 308 278 259 252 205 177 170 164 167 164 163 159 155 161 175 169 173 159 150 150 152 146 150 162 161 168 174 172 169 170 169 167 182 235 325 329 334 337 340
310 313 321 327 305 269 232 217 206 198 181 167 159 150 152 155 156 159 164 173 161 156 153 149 150 161 156 153 158 160 160 165 164 163 166 166 170 342 339 334 336 341 344
307 309 318 325 303 249 232 216 206 195 185 171 166 157 151 149 152 160 158 156 156 157 153 146 147 153 155 155 157 159 160 161 165 168 165 165 322 320 326 349 349 349 350
302 305 314 319 298 240 230 226 219 202 191 182 176 166 157 152 154 158 159 157 156 143 141 150 152 153 155 159 158 160 164 166 168 167 177 205 275 327 355 346 348 348 341
299 300 309 312 290 247 231 233 222 214 204 191 183 172 164 160 162 160 162 151 145 144 151 156 157 157 156 158 159 160 161 166 172 180 202 240 328 337 342 340 345 352 350
296 297 304 304 280 247 233 223 219 219 208 202 189 178 170 162 161 159 150 148 142 156 162 158 156 157 158 158 158 161 167 175 182 200 229 273 321 326 335 343 347 351 352
292 290 298 297 275 241 225 217 205 193 202 197 188 180 172 167 156 153 146 153 158 159 165 161 161 161 161 162 166 171 180 186 205 237 265 316 323 325 337 342 345 352 353
288 281 291 291 267 235 219 212 205 191 177 173 182 176 171 160 150 154 165 162 159 162 165 162 162 164 167 171 177 186 191 205 230 251 290 311 320 333 337 338 343 348 352
279 269 287 286 254 221 210 207 200 189 179 173 168 169 162 151 157 167 164 167 168 165 165 166 167 169 172 178 187 196 205 223 246 280 303 321 331 327 325 333 341 348 352
274 259 279 274 232 204 200 200 192 185 176 168 165 161 157 165 163 169 165 176 171 170 167 167 169 172 176 180 189 203 215 229 265 301 329 333 324 315 317 333 344 353 355
272 252 270 256 218 201 196 194 188 180 172 167 165 162 167 169 170 165 169 171 173 173 170 169 170 174 176 180 191 205 230 278 316 333 330 324 316 305 313 332 342 349 353
267 246 257 243 211 195 193 192 185 178 173 170 164 164 170 176 170 171 169 179 172 170 172 174 174 172 169 174 199 230 261 299 324 330 327 318 309 301 311 326 333 343 349
260 238 244 230 206 193 190 189 185 181 177 174 166 169 176 174 182 180 164 180 174 174 175 174 169 169 172 190 233 268 289 305 314 320 320 321 314 301 303 315 327 338 344
248 240 234 219 198 191 188 187 186 186 182 171 171 174 176 184 184 169 174 178 183 179 175 166 160 174 205 256 277 284 289 293 297 301 304 310 309 295 292 308 325 329 337
267 236 217 210 198 191 186 186 188 183 177 174 172 177 183 187 186 177 182 177 190 180 178 189 197 202 247 268 282 288 291 295 291 282 287 298 300 295 288 301 315 331 339
286 200 195 201 199 192 188 186 183 181 176 173 175 173 183 181 184 189 190 175 188 192 201 208 229 240 255 286 292 296 298 293 285 273 270 279 303 314 297 292 298 325 337
Height
1470 1465 1460 1458 1456 1452 1449 1449 1450 1450 1450 1450 1452 1453 1455 1457 1459 1461 1463 1466 1469 1471 1474 1477 1480 1484 1489 1493 1498 1501 1505 1509 1512 1515 1516 1518 1518 1518 1519 1520 1522 1523 1523
1468 1461 1456 1453 1451 1448 1447 1445 1446 1445 1447 1447 1448 1449 1451 1452 1455 1457 1459 1461 1463 1466 1470 1472 1476 1480 1484 1488 1493 1496 1500 1503 1507 1510 1513 1515 1516 1515 1516 1517 1518 1520 1520
1464 1458 1451 1448 1446 1444 1442 1443 1442 1442 1442 1444 1444 1445 1447 1449 1452 1454 1456 1458 1459 1462 1465 1468 1472 1474 1479 1483 1488 1491 1494 1498 1502 1505 1507 1512 1513 1514 1516 1516 1515 1516 1516
1461 1455 1448 1444 1441 1439 1439 1438 1438 1438 1438 1439 1441 1442 1443 1445 1447 1450 1452 1454 1456 1459 1463 1465 1468 1471 1475 1479 1483 1487 1490 1494 1497 1501 1506 1510 1511 1513 1514 1514 1513 1513 1513
1459 1453 1446 1440 1436 1434 1434 1434 1434 1434 1434 1435 1435 1437 1440 1441 1443 1446 1448 1451 1453 1456 1459 1461 1465 1469 1473 1477 1480 1484 1488 1491 1494 1499 1503 1505 1506 1509 1510 1511 1511 1511 1509
1455 1450 1443 1437 1433 1430 1430 1430 1430 1431 1431 1431 1432 1434 1435 1435 1439 1442 1445 1448 1450 1452 1456 1459 1463 1467 1470 1475 1479 1482 1486 1491 1496 1499 1501 1503 1505 1506 1507 1509 1510 1509 1507
1452 1447 1441 1435 1430 1427 1425 1426 1425 1426 1426 1426 1427 1428 1430 1432 1436 1438 1442 1444 1447 1450 1452 1455 1459 1464 1467 1472 1477 1483 1487 1491 1496 1498 1499 1500 1502 1504 1506 1506 1507 1507 1505
1449 1444 1438 1432 1427 1425 1423 1423 1422 1422 1422 1422 1423 1423 1426 1429 1432 1434 1438 1441 1444 1447 1451 1454 1457 1461 1467 1471 1476 1482 1487 1490 1493 1496 1499 1501 1502 1503 1504 1504 1505 1505 1503
1445 1440 1435 1429 1424 1422 1421 1421 1420 1420 1420 1419 1420 1421 1423 1426 1429 1432 1435 1438 1441 1446 1451 1455 1459 1463 1468 1474 1479 1483 1487 1490 1494 1497 1498 1499 1500 1501 1502 1502 1503 1502 1501
1442 1437 1432 1426 1422 1420 1420 1420 1419 1418 1418 1419 1419 1421 1423 1425 1428 1431 1434 1438 1441 1447 1453 1458 1463 1467 1471 1476 1480 1484 1488 1490 1492 1495 1497 1498 1500 1500 1501 1501 1501 1500 1499
1438 1433 1429 1424 1420 1418 1419 1419 1419 1419 1419 1420 1421 1423 1425 1427 1430 1434 1437 1440 1444 1449 1454 1460 1465 1470 1473 1477 1482 1485 1489 1490 1492 1495 1496 1497 1498 1500 1500 1500 1499 1498 1496
1434 1429 1426 1421 1418 1416 1417 1419 1419 1420 1421 1422 1424 1426 1428 1431 1434 1438 1442 1444 1447 1450 1456 1461 1467 1471 1476 1480 1483 1486 1488 1491 1492 1494 1495 1497 1498 1499 1499 1498 1497 1496 1494
1430 1426 1423 1419 1416 1415 1417 1418 1420 1421 1423 1425 1427 1429 1431 1434 1438 1442 1445 1448 1452 1455 1460 1465 1470 1474 1478 1481 1484 1487 1489 1491 1492 1494 1495 1496 1497 1497 1497 1496 1495 1493 1492
1425 1422 1420 1417 1415 1415 1416 1418 1420 1422 1424 1425 1428 1430 1433 1437 1440 1443 1447 1451 1456 1460 1464 1468 1472 1476 1479 1482 1484 1487 1489 1491 1492 1494 1495 1495 1496 1495 1494 1494 1493 1492 1491
1421 1418 1417 1414 1413 1414 1414 1417 1419 1422 1424 1425 1428 1431 1434 1438 1442 1446 1449 1453 1458 1462 1466 1470 1473 1477 1480 1482 1485 1487 1489 1491 1492 1493 1494 1494 1494 1493 1493 1492 1491 1490 1489
1416 1415 1414 1412 1412 1412 1413 1415 1419 1422 1425 1428 1432 1435 1438 1442 1445 1449 1453 1457 1462 1466 1469 1471 1474 1478 1481 1483 1485 1487 1489 1490 1492 1492 1493 1493 1493 1492 1492 1491 1490 1489 1488
1413 1412 1411 1410 1410 1410 1412 1414 1418 1422 1425 1429 1433 1437 1440 1443 1448 1452 1456 1460 1464 1467 1471 1473 1476 1479 1481 1483 1485 1487 1489 1490 1491 1492 1492 1492 1492 1491 1490 1489 1488 1488 1487
1409 1408 1408 1407 1408 1408 1410 1413 1416 1420 1423 1428 1434 1438 1442 1447 1451 1455 1459 1462 1465 1469 1472 1475 1477 1480 1482 1484 1486 1487 1488 1489 1490 1491 1491 1491 1490 1489 1489 1488 1487 1486 1485
1406 1406 1406 1405 1406 1407 1409 1412 1416 1419 1423 1427 1433 1439 1444 1450 1455 1458 1462 1465 1468 1470 1473 1476 1479 1481 1483 1485 1486 1487 1488 1489 1489 1489 1490 1489 1488 1488 1487 1487 1486 1485 1485
1403 1403 1403 1404 1404 1406 1408 1411 1415 1419 1423 1428 1432 1437 1443 1449 1453 1458 1463 1467 1470 1473 1475 1478 1480 1482 1483 1485 1486 1487 1488 1488 1488 1488 1488 1487 1487 1486 1486 1486 1486 1485 1484
1401 1402 1402 1402 1403 1405 1408 1412 1415 1419 1424 1429 1433 1439 1445 1450 1455 1460 1465 1468 1471 1474 1476 1478 1480 1482 1484 1485 1486 1487 1487 1487 1487 1487 1486 1486 1486 1486 1485 1485 1485 1484 1483
1399 1400 1400 1401 1403 1405 1409 1412 1416 1420 1425 1429 1435 1442 1449 1453 1458 1462 1466 1470 1472 1475 1477 1479 1481 1483 1484 1485 1486 1486 1486 1486 1486 1486 1486 1485 1485 1485 1484 1484 1484 1484 1483
1398 1398 1399 1401 1403 1406 1409 1413 1418 1422 1426 1431 1437 1443 1448 1454 1458 1462 1466 1470 1473 1476 1478 1480 1481 1483 1484 1485 1485 1486 1486 1486 1486 1485 1485 1484 1484 1483 1483 1483 1483 1483 1482
1397 1398 1399 1401 1403 1406 1409 1414 1419 1423 1428 1433 1438 1445 1450 1455 1459 1463 1467 1470 1473 1476 1478 1480 1481 1483 1484 1484 1485 1485 1485 1485 1485 1484 1484 1483 1483 1483 1482 1482 1482 1482 1481
1397 1397 1398 1401 1403 1406 1410 1415 1420 1425 1430 1434 1440 1446 1450 1455 1459 1462 1466 1470 1474 1476 1478 1480 1481 1482 1483 1484 1484 1483 1483 1483 1483 1483 1482 1482 1482 1482 1482 1482 1481 1481 1480
1398 1398 1399 1401 1404 1407 1411 1416 1421 1427 1431 1437 1442 1447 1451 1455 1458 1462 1466 1469 1472 1475 1477 1478 1479 1480 1481 1482 1482 1481 1481 1481 1481 1481 1481 1481 1481 1481 1480 1480 1480 1480 1479